owner,sensor,date,latitude,longitude,air_pressure(mBar),qcFlag 
TABS,ioos:station:wmo:42044:1,2011-10-01T00:00:00Z,26.1914,-97.0507,1013.93,11111222 
TABS,ioos:station:wmo:42044:1,2011-10-01T00:30:00Z,26.1914,-97.0507,1014.21,11111222 
TABS,ioos:station:wmo:42044:1,2011-10-01T01:00:00Z,26.1914,-97.0507,1014.5,11111222 
TABS,ioos:station:wmo:42044:1,2011-10-01T01:30:00Z,26.1914,-97.0507,1014.6,11111222 
TABS,ioos:station:wmo:42044:1,2011-10-01T02:00:00Z,26.1914,-97.0507,1015.1,11111222 
TABS,ioos:station:wmo:42044:1,2011-10-01T02:30:00Z,26.1914,-97.0507,1015.35,11111222 
TABS,ioos:station:wmo:42044:1,2011-10-01T03:00:00Z,26.1914,-97.0507,1015.49,11111222 
TABS,ioos:station:wmo:42044:1,2011-10-01T03:30:00Z,26.1914,-97.0507,1015.6,11111222 
TABS,ioos:station:wmo:42044:1,2011-10-01T04:00:00Z,26.1914,-97.0507,1015.65,11111222 
TABS,ioos:station:wmo:42044:1,2011-10-01T04:30:00Z,26.1914,-97.0507,1015.55,11111222 
TABS,ioos:station:wmo:42044:1,2011-10-01T05:00:00Z,26.1914,-97.0507,1015.41,11111222 
TABS,ioos:station:wmo:42044:1,2011-10-01T05:30:00Z,26.1914,-97.0507,1015.51,11111222 
TABS,ioos:station:wmo:42044:1,2011-10-01T06:00:00Z,26.1914,-97.0507,1015.37,11111222 
TABS,ioos:station:wmo:42044:1,2011-10-01T06:30:00Z,26.1914,-97.0507,1015.33,11111222 
TABS,ioos:station:wmo:42044:1,2011-10-01T07:00:00Z,26.1914,-97.0507,1015.21,11111222 
TABS,ioos:station:wmo:42044:1,2011-10-01T07:30:00Z,26.1914,-97.0507,1015.22,11111222 
TABS,ioos:station:wmo:42044:1,2011-10-01T08:00:00Z,26.1914,-97.0507,1015.29,11111222 
TABS,ioos:station:wmo:42044:1,2011-10-01T08:30:00Z,26.1914,-97.0507,1015.1,11111222 
TABS,ioos:station:wmo:42044:1,2011-10-01T09:00:00Z,26.1914,-97.0507,1014.9,11111222 
TABS,ioos:station:wmo:42044:1,2011-10-01T09:30:00Z,26.1914,-97.0507,1014.81,11111222 
TABS,ioos:station:wmo:42044:1,2011-10-01T10:00:00Z,26.1914,-97.0507,1014.99,11111222 
TABS,ioos:station:wmo:42044:1,2011-10-01T10:30:00Z,26.1914,-97.0507,1015.07,11111222 
TABS,ioos:station:wmo:42044:1,2011-10-01T11:00:00Z,26.1914,-97.0507,1015.5,11111222 
TABS,ioos:station:wmo:42044:1,2011-10-01T11:30:00Z,26.1914,-97.0507,1015.76,11111222 
TABS,ioos:station:wmo:42044:1,2011-10-01T12:00:00Z,26.1914,-97.0507,1015.85,11111222 
TABS,ioos:station:wmo:42044:1,2011-10-01T12:30:00Z,26.1914,-97.0507,1016.27,11111222 
TABS,ioos:station:wmo:42044:1,2011-10-01T13:00:00Z,26.1914,-97.0507,1016.56,11111222 
TABS,ioos:station:wmo:42044:1,2011-10-01T13:30:00Z,26.1914,-97.0507,1017.39,11111222 
TABS,ioos:station:wmo:42044:1,2011-10-01T14:00:00Z,26.1914,-97.0507,1017.99,11111222 
TABS,ioos:station:wmo:42044:1,2011-10-01T14:30:00Z,26.1914,-97.0507,1018.24,11111222 
TABS,ioos:station:wmo:42044:1,2011-10-01T15:00:00Z,26.1914,-97.0507,1018.43,11111222 
TABS,ioos:station:wmo:42044:1,2011-10-01T15:30:00Z,26.1914,-97.0507,1018.69,11111222 
TABS,ioos:station:wmo:42044:1,2011-10-01T16:00:00Z,26.1914,-97.0507,1018.72,11111222 
TABS,ioos:station:wmo:42044:1,2011-10-01T16:30:00Z,26.1914,-97.0507,1018.83,11111222 
TABS,ioos:station:wmo:42044:1,2011-10-01T17:00:00Z,26.1914,-97.0507,1018.73,11111222 
TABS,ioos:station:wmo:42044:1,2011-10-01T17:30:00Z,26.1914,-97.0507,1018.62,11111222 
TABS,ioos:station:wmo:42044:1,2011-10-01T18:00:00Z,26.1914,-97.0507,1018.36,11111222 
TABS,ioos:station:wmo:42044:1,2011-10-01T18:30:00Z,26.1914,-97.0507,1017.98,11111222 
TABS,ioos:station:wmo:42044:1,2011-10-01T19:00:00Z,26.1914,-97.0507,1017.6,11111222 
TABS,ioos:station:wmo:42044:1,2011-10-01T19:30:00Z,26.1914,-97.0507,1017.59,11111222 
TABS,ioos:station:wmo:42044:1,2011-10-01T20:00:00Z,26.1914,-97.0507,1017.45,11111222 
TABS,ioos:station:wmo:42044:1,2011-10-01T20:30:00Z,26.1914,-97.0507,1017.44,11111222 
TABS,ioos:station:wmo:42044:1,2011-10-01T21:00:00Z,26.1914,-97.0507,1017.11,11111222 
TABS,ioos:station:wmo:42044:1,2011-10-01T21:30:00Z,26.1914,-97.0507,1017.3,11111222 
TABS,ioos:station:wmo:42044:1,2011-10-01T22:00:00Z,26.1914,-97.0507,1017.37,11111222 
TABS,ioos:station:wmo:42044:1,2011-10-01T22:30:00Z,26.1914,-97.0507,1017.32,11111222 
TABS,ioos:station:wmo:42044:1,2011-10-01T23:00:00Z,26.1914,-97.0507,1017.4,11111222 
TABS,ioos:station:wmo:42044:1,2011-10-01T23:30:00Z,26.1914,-97.0507,1017.66,11111222 
TABS,ioos:station:wmo:42044:1,2011-10-02T00:00:00Z,26.1914,-97.0507,1017.71,11111222 
TABS,ioos:station:wmo:42044:1,2011-10-02T00:30:00Z,26.1914,-97.0507,1017.9,11111222 
TABS,ioos:station:wmo:42044:1,2011-10-02T01:00:00Z,26.1914,-97.0507,1018.13,11111222 
TABS,ioos:station:wmo:42044:1,2011-10-02T01:30:00Z,26.1914,-97.0507,1018.3,11111222 
TABS,ioos:station:wmo:42044:1,2011-10-02T02:00:00Z,26.1914,-97.0507,1018.68,11111222 
TABS,ioos:station:wmo:42044:1,2011-10-02T02:30:00Z,26.1914,-97.0507,1018.68,11111222 
TABS,ioos:station:wmo:42044:1,2011-10-02T03:00:00Z,26.1914,-97.0507,1018.81,11111222 
TABS,ioos:station:wmo:42044:1,2011-10-02T03:30:00Z,26.1914,-97.0507,1018.82,11111222 
TABS,ioos:station:wmo:42044:1,2011-10-02T04:00:00Z,26.1914,-97.0507,1018.91,11111222 
TABS,ioos:station:wmo:42044:1,2011-10-02T04:30:00Z,26.1914,-97.0507,1018.9,11111222 
TABS,ioos:station:wmo:42044:1,2011-10-02T05:00:00Z,26.1914,-97.0507,1018.65,11111222 
TABS,ioos:station:wmo:42044:1,2011-10-02T05:30:00Z,26.1914,-97.0507,1018.76,11111222 
TABS,ioos:station:wmo:42044:1,2011-10-02T06:00:00Z,26.1914,-97.0507,1018.64,11111222 
TABS,ioos:station:wmo:42044:1,2011-10-02T06:30:00Z,26.1914,-97.0507,1018.42,11111222 
TABS,ioos:station:wmo:42044:1,2011-10-02T07:00:00Z,26.1914,-97.0507,1018.42,11111222 
TABS,ioos:station:wmo:42044:1,2011-10-02T07:30:00Z,26.1914,-97.0507,1018.23,11111222 
TABS,ioos:station:wmo:42044:1,2011-10-02T08:00:00Z,26.1914,-97.0507,1018.13,11111222 
TABS,ioos:station:wmo:42044:1,2011-10-02T08:30:00Z,26.1914,-97.0507,1018.03,11111222 
TABS,ioos:station:wmo:42044:1,2011-10-02T09:00:00Z,26.1914,-97.0507,1018.0,11111222 
TABS,ioos:station:wmo:42044:1,2011-10-02T09:30:00Z,26.1914,-97.0507,1017.95,11111222 
TABS,ioos:station:wmo:42044:1,2011-10-02T10:00:00Z,26.1914,-97.0507,1018.09,11111222 
TABS,ioos:station:wmo:42044:1,2011-10-02T10:30:00Z,26.1914,-97.0507,1018.39,11111222 
TABS,ioos:station:wmo:42044:1,2011-10-02T11:00:00Z,26.1914,-97.0507,1018.76,11111222 
TABS,ioos:station:wmo:42044:1,2011-10-02T11:30:00Z,26.1914,-97.0507,1019.03,11111222 
TABS,ioos:station:wmo:42044:1,2011-10-02T12:00:00Z,26.1914,-97.0507,1019.17,11111222 
TABS,ioos:station:wmo:42044:1,2011-10-02T12:30:00Z,26.1914,-97.0507,1019.39,11111222 
TABS,ioos:station:wmo:42044:1,2011-10-02T13:00:00Z,26.1914,-97.0507,1019.6,11111222 
TABS,ioos:station:wmo:42044:1,2011-10-02T13:30:00Z,26.1914,-97.0507,1019.98,11111222 
TABS,ioos:station:wmo:42044:1,2011-10-02T14:00:00Z,26.1914,-97.0507,1020.3,11111222 
TABS,ioos:station:wmo:42044:1,2011-10-02T14:30:00Z,26.1914,-97.0507,1020.5,11111222 
TABS,ioos:station:wmo:42044:1,2011-10-02T15:00:00Z,26.1914,-97.0507,1020.58,11111222 
TABS,ioos:station:wmo:42044:1,2011-10-02T15:30:00Z,26.1914,-97.0507,1020.78,11111222 
TABS,ioos:station:wmo:42044:1,2011-10-02T16:00:00Z,26.1914,-97.0507,1020.88,11111222 
TABS,ioos:station:wmo:42044:1,2011-10-02T16:30:00Z,26.1914,-97.0507,1021.01,11111222 
TABS,ioos:station:wmo:42044:1,2011-10-02T17:00:00Z,26.1914,-97.0507,1020.94,11111222 
TABS,ioos:station:wmo:42044:1,2011-10-02T17:30:00Z,26.1914,-97.0507,1020.74,11111222 
TABS,ioos:station:wmo:42044:1,2011-10-02T18:00:00Z,26.1914,-97.0507,1020.56,11111222 
TABS,ioos:station:wmo:42044:1,2011-10-02T18:30:00Z,26.1914,-97.0507,1020.28,11111222 
TABS,ioos:station:wmo:42044:1,2011-10-02T19:00:00Z,26.1914,-97.0507,1020.06,11111222 
TABS,ioos:station:wmo:42044:1,2011-10-02T19:30:00Z,26.1914,-97.0507,1019.8,11111222 
TABS,ioos:station:wmo:42044:1,2011-10-02T20:00:00Z,26.1914,-97.0507,1019.62,11111222 
TABS,ioos:station:wmo:42044:1,2011-10-02T20:30:00Z,26.1914,-97.0507,1019.38,11111222 
TABS,ioos:station:wmo:42044:1,2011-10-02T21:00:00Z,26.1914,-97.0507,1019.37,11111222 
TABS,ioos:station:wmo:42044:1,2011-10-02T21:30:00Z,26.1914,-97.0507,1019.19,11111222 
TABS,ioos:station:wmo:42044:1,2011-10-02T22:00:00Z,26.1914,-97.0507,1019.03,11111222 
TABS,ioos:station:wmo:42044:1,2011-10-02T22:30:00Z,26.1914,-97.0507,1018.95,11111222 
TABS,ioos:station:wmo:42044:1,2011-10-02T23:00:00Z,26.1914,-97.0507,1019.02,11111222 
TABS,ioos:station:wmo:42044:1,2011-10-02T23:30:00Z,26.1914,-97.0507,1019.08,11111222 
TABS,ioos:station:wmo:42044:1,2011-10-03T00:00:00Z,26.1914,-97.0507,1019.22,11111222 
TABS,ioos:station:wmo:42044:1,2011-10-03T00:30:00Z,26.1914,-97.0507,1019.3,11111222 
TABS,ioos:station:wmo:42044:1,2011-10-03T01:00:00Z,26.1914,-97.0507,1019.37,11111222 
TABS,ioos:station:wmo:42044:1,2011-10-03T01:30:00Z,26.1914,-97.0507,1019.38,11111222 
TABS,ioos:station:wmo:42044:1,2011-10-03T02:00:00Z,26.1914,-97.0507,1019.54,11111222 
TABS,ioos:station:wmo:42044:1,2011-10-03T02:30:00Z,26.1914,-97.0507,1019.65,11111222 
TABS,ioos:station:wmo:42044:1,2011-10-03T03:00:00Z,26.1914,-97.0507,1019.7,11111222 
TABS,ioos:station:wmo:42044:1,2011-10-03T03:30:00Z,26.1914,-97.0507,1019.75,11111222 
TABS,ioos:station:wmo:42044:1,2011-10-03T04:00:00Z,26.1914,-97.0507,1019.82,11111222 
TABS,ioos:station:wmo:42044:1,2011-10-03T04:30:00Z,26.1914,-97.0507,1019.78,11111222 
TABS,ioos:station:wmo:42044:1,2011-10-03T05:00:00Z,26.1914,-97.0507,1019.73,11111222 
TABS,ioos:station:wmo:42044:1,2011-10-03T05:30:00Z,26.1914,-97.0507,1019.52,11111222 
TABS,ioos:station:wmo:42044:1,2011-10-03T06:00:00Z,26.1914,-97.0507,1019.38,11111222 
TABS,ioos:station:wmo:42044:1,2011-10-03T06:30:00Z,26.1914,-97.0507,1019.38,11111222 
TABS,ioos:station:wmo:42044:1,2011-10-03T07:00:00Z,26.1914,-97.0507,1019.13,11111222 
TABS,ioos:station:wmo:42044:1,2011-10-03T07:30:00Z,26.1914,-97.0507,1019.12,11111222 
TABS,ioos:station:wmo:42044:1,2011-10-03T08:00:00Z,26.1914,-97.0507,1018.81,11111222 
TABS,ioos:station:wmo:42044:1,2011-10-03T08:30:00Z,26.1914,-97.0507,1018.6,11111222 
TABS,ioos:station:wmo:42044:1,2011-10-03T09:00:00Z,26.1914,-97.0507,1018.69,11111222 
TABS,ioos:station:wmo:42044:1,2011-10-03T09:30:00Z,26.1914,-97.0507,1018.56,11111222 
TABS,ioos:station:wmo:42044:1,2011-10-03T10:00:00Z,26.1914,-97.0507,1018.7,11111222 
TABS,ioos:station:wmo:42044:1,2011-10-03T10:30:00Z,26.1914,-97.0507,1018.81,11111222 
TABS,ioos:station:wmo:42044:1,2011-10-03T11:00:00Z,26.1914,-97.0507,1019.15,11111222 
TABS,ioos:station:wmo:42044:1,2011-10-03T11:30:00Z,26.1914,-97.0507,1019.36,11111222 
TABS,ioos:station:wmo:42044:1,2011-10-03T12:00:00Z,26.1914,-97.0507,1019.8,11111222 
TABS,ioos:station:wmo:42044:1,2011-10-03T12:30:00Z,26.1914,-97.0507,1019.97,11111222 
TABS,ioos:station:wmo:42044:1,2011-10-03T13:00:00Z,26.1914,-97.0507,1020.22,11111222 
TABS,ioos:station:wmo:42044:1,2011-10-03T13:30:00Z,26.1914,-97.0507,1020.62,11111222 
TABS,ioos:station:wmo:42044:1,2011-10-03T14:00:00Z,26.1914,-97.0507,1020.93,11111222 
TABS,ioos:station:wmo:42044:1,2011-10-03T14:30:00Z,26.1914,-97.0507,1021.23,11111222 
TABS,ioos:station:wmo:42044:1,2011-10-03T15:00:00Z,26.1914,-97.0507,1021.54,11111222 
TABS,ioos:station:wmo:42044:1,2011-10-03T15:30:00Z,26.1914,-97.0507,1021.79,11111222 
TABS,ioos:station:wmo:42044:1,2011-10-03T16:00:00Z,26.1914,-97.0507,1021.91,11111222 
TABS,ioos:station:wmo:42044:1,2011-10-03T16:30:00Z,26.1914,-97.0507,1021.85,11111222 
TABS,ioos:station:wmo:42044:1,2011-10-03T17:00:00Z,26.1914,-97.0507,1021.73,11111222 
TABS,ioos:station:wmo:42044:1,2011-10-03T17:30:00Z,26.1914,-97.0507,1021.56,11111222 
TABS,ioos:station:wmo:42044:1,2011-10-03T18:00:00Z,26.1914,-97.0507,1021.14,11111222 
TABS,ioos:station:wmo:42044:1,2011-10-03T18:30:00Z,26.1914,-97.0507,1020.77,11111222 
TABS,ioos:station:wmo:42044:1,2011-10-03T19:00:00Z,26.1914,-97.0507,1020.32,11111222 
TABS,ioos:station:wmo:42044:1,2011-10-03T19:30:00Z,26.1914,-97.0507,1019.99,11111222 
TABS,ioos:station:wmo:42044:1,2011-10-03T20:00:00Z,26.1914,-97.0507,1019.61,11111222 
TABS,ioos:station:wmo:42044:1,2011-10-03T20:30:00Z,26.1914,-97.0507,1019.42,11111222 
TABS,ioos:station:wmo:42044:1,2011-10-03T21:00:00Z,26.1914,-97.0507,1019.21,11111222 
TABS,ioos:station:wmo:42044:1,2011-10-03T21:30:00Z,26.1914,-97.0507,1019.3,11111222 
TABS,ioos:station:wmo:42044:1,2011-10-03T22:00:00Z,26.1914,-97.0507,1019.2,11111222 
TABS,ioos:station:wmo:42044:1,2011-10-03T22:30:00Z,26.1914,-97.0507,1019.05,11111222 
TABS,ioos:station:wmo:42044:1,2011-10-03T23:00:00Z,26.1914,-97.0507,1019.01,11111222 
TABS,ioos:station:wmo:42044:1,2011-10-03T23:30:00Z,26.1914,-97.0507,1019.14,11111222 
TABS,ioos:station:wmo:42044:1,2011-10-04T00:00:00Z,26.1914,-97.0507,1019.19,11111222 
TABS,ioos:station:wmo:42044:1,2011-10-04T00:30:00Z,26.1914,-97.0507,1019.14,11111222 
TABS,ioos:station:wmo:42044:1,2011-10-04T01:00:00Z,26.1914,-97.0507,1019.34,11111222 
TABS,ioos:station:wmo:42044:1,2011-10-04T01:30:00Z,26.1914,-97.0507,1019.54,11111222 
TABS,ioos:station:wmo:42044:1,2011-10-04T02:00:00Z,26.1914,-97.0507,1019.66,11111222 
TABS,ioos:station:wmo:42044:1,2011-10-04T02:30:00Z,26.1914,-97.0507,1019.73,11111222 
TABS,ioos:station:wmo:42044:1,2011-10-04T03:00:00Z,26.1914,-97.0507,1019.83,11111222 
TABS,ioos:station:wmo:42044:1,2011-10-04T03:30:00Z,26.1914,-97.0507,1019.68,11111222 
TABS,ioos:station:wmo:42044:1,2011-10-04T04:00:00Z,26.1914,-97.0507,1019.65,11111222 
TABS,ioos:station:wmo:42044:1,2011-10-04T04:30:00Z,26.1914,-97.0507,1019.62,11111222 
TABS,ioos:station:wmo:42044:1,2011-10-04T05:00:00Z,26.1914,-97.0507,1019.58,11111222 
TABS,ioos:station:wmo:42044:1,2011-10-04T05:30:00Z,26.1914,-97.0507,1019.44,11111222 
TABS,ioos:station:wmo:42044:1,2011-10-04T06:00:00Z,26.1914,-97.0507,1019.39,11111222 
TABS,ioos:station:wmo:42044:1,2011-10-04T06:30:00Z,26.1914,-97.0507,1019.14,11111222 
TABS,ioos:station:wmo:42044:1,2011-10-04T07:00:00Z,26.1914,-97.0507,1019.08,11111222 
TABS,ioos:station:wmo:42044:1,2011-10-04T07:30:00Z,26.1914,-97.0507,1018.84,11111222 
TABS,ioos:station:wmo:42044:1,2011-10-04T08:00:00Z,26.1914,-97.0507,1018.76,11111222 
TABS,ioos:station:wmo:42044:1,2011-10-04T08:30:00Z,26.1914,-97.0507,1018.53,11111222 
TABS,ioos:station:wmo:42044:1,2011-10-04T09:00:00Z,26.1914,-97.0507,1018.57,11111222 
TABS,ioos:station:wmo:42044:1,2011-10-04T09:30:00Z,26.1914,-97.0507,1018.48,11111222 
TABS,ioos:station:wmo:42044:1,2011-10-04T10:00:00Z,26.1914,-97.0507,1018.44,11111222 
TABS,ioos:station:wmo:42044:1,2011-10-04T10:30:00Z,26.1914,-97.0507,1018.59,11111222 
TABS,ioos:station:wmo:42044:1,2011-10-04T11:00:00Z,26.1914,-97.0507,1018.88,11111222 
TABS,ioos:station:wmo:42044:1,2011-10-04T11:30:00Z,26.1914,-97.0507,1019.03,11111222 
TABS,ioos:station:wmo:42044:1,2011-10-04T12:00:00Z,26.1914,-97.0507,1019.16,11111222 
TABS,ioos:station:wmo:42044:1,2011-10-04T12:30:00Z,26.1914,-97.0507,1019.38,11111222 
TABS,ioos:station:wmo:42044:1,2011-10-04T13:00:00Z,26.1914,-97.0507,1019.63,11111222 
TABS,ioos:station:wmo:42044:1,2011-10-04T13:30:00Z,26.1914,-97.0507,1019.9,11111222 
TABS,ioos:station:wmo:42044:1,2011-10-04T14:00:00Z,26.1914,-97.0507,1020.26,11111222 
TABS,ioos:station:wmo:42044:1,2011-10-04T14:30:00Z,26.1914,-97.0507,1020.58,11111222 
TABS,ioos:station:wmo:42044:1,2011-10-04T15:00:00Z,26.1914,-97.0507,1020.79,11111222 
TABS,ioos:station:wmo:42044:1,2011-10-04T15:30:00Z,26.1914,-97.0507,1020.99,11111222 
TABS,ioos:station:wmo:42044:1,2011-10-04T16:00:00Z,26.1914,-97.0507,1021.06,11111222 
TABS,ioos:station:wmo:42044:1,2011-10-04T16:30:00Z,26.1914,-97.0507,1020.95,11111222 
TABS,ioos:station:wmo:42044:1,2011-10-04T17:00:00Z,26.1914,-97.0507,1020.74,11111222 
TABS,ioos:station:wmo:42044:1,2011-10-04T17:30:00Z,26.1914,-97.0507,1020.47,11111222 
TABS,ioos:station:wmo:42044:1,2011-10-04T18:00:00Z,26.1914,-97.0507,1020.08,11111222 
TABS,ioos:station:wmo:42044:1,2011-10-04T18:30:00Z,26.1914,-97.0507,1019.75,11111222 
TABS,ioos:station:wmo:42044:1,2011-10-04T19:00:00Z,26.1914,-97.0507,1019.23,11111222 
TABS,ioos:station:wmo:42044:1,2011-10-04T19:30:00Z,26.1914,-97.0507,1018.75,11111222 
TABS,ioos:station:wmo:42044:1,2011-10-04T20:00:00Z,26.1914,-97.0507,1018.27,11111222 
TABS,ioos:station:wmo:42044:1,2011-10-04T20:30:00Z,26.1914,-97.0507,1018.03,11111222 
TABS,ioos:station:wmo:42044:1,2011-10-04T21:00:00Z,26.1914,-97.0507,1017.74,11111222 
TABS,ioos:station:wmo:42044:1,2011-10-04T21:30:00Z,26.1914,-97.0507,1017.62,11111222 
TABS,ioos:station:wmo:42044:1,2011-10-04T22:00:00Z,26.1914,-97.0507,1017.53,11111222 
TABS,ioos:station:wmo:42044:1,2011-10-04T22:30:00Z,26.1914,-97.0507,1017.47,11111222 
TABS,ioos:station:wmo:42044:1,2011-10-04T23:00:00Z,26.1914,-97.0507,1017.36,11111222 
TABS,ioos:station:wmo:42044:1,2011-10-04T23:30:00Z,26.1914,-97.0507,1017.51,11111222 
TABS,ioos:station:wmo:42044:1,2011-10-05T00:00:00Z,26.1914,-97.0507,1017.48,11111222 
TABS,ioos:station:wmo:42044:1,2011-10-05T00:30:00Z,26.1914,-97.0507,1017.55,11111222 
TABS,ioos:station:wmo:42044:1,2011-10-05T01:00:00Z,26.1914,-97.0507,1017.65,11111222 
TABS,ioos:station:wmo:42044:1,2011-10-05T01:30:00Z,26.1914,-97.0507,1017.91,11111222 
TABS,ioos:station:wmo:42044:1,2011-10-05T02:00:00Z,26.1914,-97.0507,1018.01,11111222 
TABS,ioos:station:wmo:42044:1,2011-10-05T02:30:00Z,26.1914,-97.0507,1018.05,11111222 
TABS,ioos:station:wmo:42044:1,2011-10-05T03:00:00Z,26.1914,-97.0507,1018.18,11111222 
TABS,ioos:station:wmo:42044:1,2011-10-05T03:30:00Z,26.1914,-97.0507,1018.11,11111222 
TABS,ioos:station:wmo:42044:1,2011-10-05T04:00:00Z,26.1914,-97.0507,1018.07,11111222 
TABS,ioos:station:wmo:42044:1,2011-10-05T04:30:00Z,26.1914,-97.0507,1017.83,11111222 
TABS,ioos:station:wmo:42044:1,2011-10-05T05:00:00Z,26.1914,-97.0507,1017.69,11111222 
TABS,ioos:station:wmo:42044:1,2011-10-05T05:30:00Z,26.1914,-97.0507,1017.47,11111222 
TABS,ioos:station:wmo:42044:1,2011-10-05T06:00:00Z,26.1914,-97.0507,1017.34,11111222 
TABS,ioos:station:wmo:42044:1,2011-10-05T06:30:00Z,26.1914,-97.0507,1017.2,11111222 
TABS,ioos:station:wmo:42044:1,2011-10-05T07:00:00Z,26.1914,-97.0507,1017.09,11111222 
TABS,ioos:station:wmo:42044:1,2011-10-05T07:30:00Z,26.1914,-97.0507,1016.9,11111222 
TABS,ioos:station:wmo:42044:1,2011-10-05T08:00:00Z,26.1914,-97.0507,1016.75,11111222 
TABS,ioos:station:wmo:42044:1,2011-10-05T08:30:00Z,26.1914,-97.0507,1016.62,11111222 
TABS,ioos:station:wmo:42044:1,2011-10-05T09:00:00Z,26.1914,-97.0507,1016.28,11111222 
TABS,ioos:station:wmo:42044:1,2011-10-05T09:30:00Z,26.1914,-97.0507,1016.01,11111222 
TABS,ioos:station:wmo:42044:1,2011-10-05T10:00:00Z,26.1914,-97.0507,1015.85,11111222 
TABS,ioos:station:wmo:42044:1,2011-10-05T10:30:00Z,26.1914,-97.0507,1015.92,11111222 
TABS,ioos:station:wmo:42044:1,2011-10-05T11:00:00Z,26.1914,-97.0507,1016.11,11111222 
TABS,ioos:station:wmo:42044:1,2011-10-05T11:30:00Z,26.1914,-97.0507,1016.36,11111222 
TABS,ioos:station:wmo:42044:1,2011-10-05T12:00:00Z,26.1914,-97.0507,1016.56,11111222 
TABS,ioos:station:wmo:42044:1,2011-10-05T12:30:00Z,26.1914,-97.0507,1016.68,11111222 
TABS,ioos:station:wmo:42044:1,2011-10-05T13:00:00Z,26.1914,-97.0507,1016.95,11111222 
TABS,ioos:station:wmo:42044:1,2011-10-05T13:30:00Z,26.1914,-97.0507,1017.09,11111222 
TABS,ioos:station:wmo:42044:1,2011-10-05T14:00:00Z,26.1914,-97.0507,1017.51,11111222 
TABS,ioos:station:wmo:42044:1,2011-10-05T14:30:00Z,26.1914,-97.0507,1017.61,11111222 
TABS,ioos:station:wmo:42044:1,2011-10-05T15:00:00Z,26.1914,-97.0507,1017.58,11111222 
TABS,ioos:station:wmo:42044:1,2011-10-05T15:30:00Z,26.1914,-97.0507,1017.9,11111222 
TABS,ioos:station:wmo:42044:1,2011-10-05T16:00:00Z,26.1914,-97.0507,1017.82,11111222 
TABS,ioos:station:wmo:42044:1,2011-10-05T16:30:00Z,26.1914,-97.0507,1017.69,11111222 
TABS,ioos:station:wmo:42044:1,2011-10-05T17:00:00Z,26.1914,-97.0507,1017.49,11111222 
TABS,ioos:station:wmo:42044:1,2011-10-05T17:30:00Z,26.1914,-97.0507,1017.35,11111222 
TABS,ioos:station:wmo:42044:1,2011-10-05T18:00:00Z,26.1914,-97.0507,1016.93,11111222 
TABS,ioos:station:wmo:42044:1,2011-10-05T18:30:00Z,26.1914,-97.0507,1016.44,11111222 
TABS,ioos:station:wmo:42044:1,2011-10-05T19:00:00Z,26.1914,-97.0507,1016.11,11111222 
TABS,ioos:station:wmo:42044:1,2011-10-05T19:30:00Z,26.1914,-97.0507,1015.85,11111222 
TABS,ioos:station:wmo:42044:1,2011-10-05T20:00:00Z,26.1914,-97.0507,1015.51,11111222 
TABS,ioos:station:wmo:42044:1,2011-10-05T20:30:00Z,26.1914,-97.0507,1015.12,11111222 
TABS,ioos:station:wmo:42044:1,2011-10-05T21:00:00Z,26.1914,-97.0507,1014.68,11111222 
TABS,ioos:station:wmo:42044:1,2011-10-05T21:30:00Z,26.1914,-97.0507,1014.41,11111222 
TABS,ioos:station:wmo:42044:1,2011-10-05T22:00:00Z,26.1914,-97.0507,1014.27,11111222 
TABS,ioos:station:wmo:42044:1,2011-10-05T22:30:00Z,26.1914,-97.0507,1014.23,11111222 
TABS,ioos:station:wmo:42044:1,2011-10-05T23:00:00Z,26.1914,-97.0507,1014.16,11111222 
TABS,ioos:station:wmo:42044:1,2011-10-05T23:30:00Z,26.1914,-97.0507,1014.22,11111222 
TABS,ioos:station:wmo:42044:1,2011-10-06T00:00:00Z,26.1914,-97.0507,1014.15,11111222 
TABS,ioos:station:wmo:42044:1,2011-10-06T00:30:00Z,26.1914,-97.0507,1014.29,11111222 
TABS,ioos:station:wmo:42044:1,2011-10-06T01:00:00Z,26.1914,-97.0507,1014.54,11111222 
TABS,ioos:station:wmo:42044:1,2011-10-06T01:30:00Z,26.1914,-97.0507,1014.67,11111222 
TABS,ioos:station:wmo:42044:1,2011-10-06T02:00:00Z,26.1914,-97.0507,1014.82,11111222 
TABS,ioos:station:wmo:42044:1,2011-10-06T02:30:00Z,26.1914,-97.0507,1014.93,11111222 
TABS,ioos:station:wmo:42044:1,2011-10-06T03:00:00Z,26.1914,-97.0507,1015.16,11111222 
TABS,ioos:station:wmo:42044:1,2011-10-06T03:30:00Z,26.1914,-97.0507,1015.07,11111222 
TABS,ioos:station:wmo:42044:1,2011-10-06T04:00:00Z,26.1914,-97.0507,1015.08,11111222 
TABS,ioos:station:wmo:42044:1,2011-10-06T04:30:00Z,26.1914,-97.0507,1014.97,11111222 
TABS,ioos:station:wmo:42044:1,2011-10-06T05:00:00Z,26.1914,-97.0507,1014.75,11111222 
TABS,ioos:station:wmo:42044:1,2011-10-06T05:30:00Z,26.1914,-97.0507,1014.6,11111222 
TABS,ioos:station:wmo:42044:1,2011-10-06T06:00:00Z,26.1914,-97.0507,1014.33,11111222 
TABS,ioos:station:wmo:42044:1,2011-10-06T06:30:00Z,26.1914,-97.0507,1014.21,11111222 
TABS,ioos:station:wmo:42044:1,2011-10-06T07:00:00Z,26.1914,-97.0507,1013.98,11111222 
TABS,ioos:station:wmo:42044:1,2011-10-06T07:30:00Z,26.1914,-97.0507,1013.67,11111222 
TABS,ioos:station:wmo:42044:1,2011-10-06T08:00:00Z,26.1914,-97.0507,1013.62,11111222 
TABS,ioos:station:wmo:42044:1,2011-10-06T08:30:00Z,26.1914,-97.0507,1013.44,11111222 
TABS,ioos:station:wmo:42044:1,2011-10-06T09:00:00Z,26.1914,-97.0507,1013.03,11111222 
TABS,ioos:station:wmo:42044:1,2011-10-06T09:30:00Z,26.1914,-97.0507,1012.88,11111222 
TABS,ioos:station:wmo:42044:1,2011-10-06T10:00:00Z,26.1914,-97.0507,1012.75,11111222 
TABS,ioos:station:wmo:42044:1,2011-10-06T10:30:00Z,26.1914,-97.0507,1012.73,11111222 
TABS,ioos:station:wmo:42044:1,2011-10-06T11:00:00Z,26.1914,-97.0507,1012.94,11111222 
TABS,ioos:station:wmo:42044:1,2011-10-06T11:30:00Z,26.1914,-97.0507,1013.15,11111222 
TABS,ioos:station:wmo:42044:1,2011-10-06T12:00:00Z,26.1914,-97.0507,1013.22,11111222 
TABS,ioos:station:wmo:42044:1,2011-10-06T12:30:00Z,26.1914,-97.0507,1013.48,11111222 
TABS,ioos:station:wmo:42044:1,2011-10-06T13:00:00Z,26.1914,-97.0507,1013.78,11111222 
TABS,ioos:station:wmo:42044:1,2011-10-06T13:30:00Z,26.1914,-97.0507,1014.03,11111222 
TABS,ioos:station:wmo:42044:1,2011-10-06T14:00:00Z,26.1914,-97.0507,1014.19,11111222 
TABS,ioos:station:wmo:42044:1,2011-10-06T14:30:00Z,26.1914,-97.0507,1014.56,11111222 
TABS,ioos:station:wmo:42044:1,2011-10-06T15:00:00Z,26.1914,-97.0507,1014.66,11111222 
TABS,ioos:station:wmo:42044:1,2011-10-06T15:30:00Z,26.1914,-97.0507,1014.49,11111222 
TABS,ioos:station:wmo:42044:1,2011-10-06T16:00:00Z,26.1914,-97.0507,1014.51,11111222 
TABS,ioos:station:wmo:42044:1,2011-10-06T16:30:00Z,26.1914,-97.0507,1014.36,11111222 
TABS,ioos:station:wmo:42044:1,2011-10-06T17:00:00Z,26.1914,-97.0507,1014.1,11111222 
TABS,ioos:station:wmo:42044:1,2011-10-06T17:30:00Z,26.1914,-97.0507,1013.96,11111222 
TABS,ioos:station:wmo:42044:1,2011-10-06T18:00:00Z,26.1914,-97.0507,1013.7,11111222 
TABS,ioos:station:wmo:42044:1,2011-10-06T18:30:00Z,26.1914,-97.0507,1013.28,11111222 